sat.trackr.live / text

‹ back to catalog

STARLINK-37593

NORAD 69355 · 2026-123C

PAYLOAD ACTIVE UNKNOWN

§ Identity

Operator
Country
US
Launch date
2026-06-04
Launch site
AFETR
Launch vehicle
Mass (kg)
RCS (m²)

Purposes: comms

External: N2YO · Heavens-Above · Gunter

§ Orbital elements

Epoch: 2026-09-20T03:33:45.470016Z

Period
93.85 min
Inclination
53.1588°
Eccentricity
0.0001191
Mean motion
15.34408340 rev/d
Perigee alt
461.9 km
Apogee alt
463.5 km
Semi-major
6,840.8 km
B*
3.8213e-4
RAAN
143.5471°
Arg perigee
83.8950°
Mean anomaly
276.2188°
Rev number
1,681

§ Raw data

STARLINK-375931 69355U 26123C   26263.14844294  .00012560  00000+0  38213-3 0  99902 69355  53.1588 143.5471 0001191  83.8950 276.2188 15.34408340 16812

JSON: /api/v1/satellites/69355 · /tle

For live sub-satellite position, see the globe view (requires WebGL).

§ Visibility from observer

Set your observer location to see the next 7 days of passes ≥ 10°. The values pass through the URL so the page stays shareable.

No JS? Fill the form by hand. The geolocation button needs JavaScript.